FW7659 Weather Reports


time (UTC)temp
C
wind
direction
speed
KPH
gust
KPH
rain 1hr
cm
rain 24hr
cm
rain mn
cm
humidity
%
barometer
mb
20260505200904 22 214 1.6 4.8 0.00 0.00 0.00 47 1015.0
20260505200403 21 225 0.0 1.6 0.00 0.00 0.00 47 1015.2
20260505195903 21 202 1.6 9.7 0.00 0.00 0.00 43 1015.4
20260505195404 22 249 1.6 4.8 0.00 0.00 0.00 45 1015.4
20260505194903 22 247 0.0 3.2 0.00 0.00 0.00 44 1015.3
20260505194404 22 223 0.0 3.2 0.00 0.00 0.00 43 1015.5
20260505193904 22 241 1.6 4.8 0.00 0.00 0.00 45 1015.6
20260505193403 22 226 1.6 3.2 0.00 0.00 0.00 46 1015.7
20260505192904 22 274 0.0 3.2 0.00 0.00 0.00 45 1015.6
20260505192403 22 218 0.0 3.2 0.00 0.00 0.00 48 1015.7
20260505191404 23 280 1.6 3.2 0.00 0.00 0.00 46 1015.9
20260505190903 23 259 0.0 1.6 0.00 0.00 0.00 45 1015.9
20260505190404 23 261 1.6 3.2 0.00 0.00 0.00 47 1016.0
20260505185904 23 263 0.0 1.6 0.00 0.00 0.00 45 1016.0
20260505185403 23 264 1.6 3.2 0.00 0.00 0.00 45 1016.1
20260505184904 22 246 0.0 1.6 0.00 0.00 0.00 44 1016.1
20260505184404 23 233 1.6 3.2 0.00 0.00 0.00 42 1016.0
20260505183904 23 296 0.0 3.2 0.00 0.00 0.00 42 1016.0
20260505183404 23 277 1.6 3.2 0.00 0.00 0.00 41 1016.1
20260505182404 23 293 1.6 3.2 0.00 0.00 0.00 42 1016.1
20260505181903 23 256 1.6 3.2 0.00 0.00 0.00 44 1016.3
20260505181404 23 250 1.6 4.8 0.00 0.00 0.00 45 1016.4
20260505180903 23 236 1.6 3.2 0.00 0.00 0.00 45 1016.4
20260505180404 23 247 1.6 3.2 0.00 0.00 0.00 44 1016.5
20260505175904 23 250 1.6 3.2 0.00 0.00 0.00 45 1016.5
20260505175403 23 269 1.6 3.2 0.00 0.00 0.00 46 1016.8
20260505174903 23 279 0.0 4.8 0.00 0.00 0.00 45 1017.0
20260505174404 23 272 1.6 3.2 0.00 0.00 0.00 46 1017.0
20260505173904 23 293 1.6 3.2 0.00 0.00 0.00 48 1017.0
20260505173404 22 257 1.6 3.2 0.00 0.00 0.00 49 1017.0
20260505172904 22 260 1.6 3.2 0.00 0.00 0.00 49 1017.1
20260505172403 22 221 1.6 3.2 0.00 0.00 0.00 47 1017.0
20260505171904 23 260 1.6 3.2 0.00 0.00 0.00 45 1017.2
20260505171404 23 274 1.6 3.2 0.00 0.00 0.00 46 1017.3
20260505170403 23 253 1.6 3.2 0.00 0.00 0.00 47 1017.4
20260505165904 23 320 1.6 4.8 0.00 0.00 0.00 46 1017.3
20260505165404 23 294 0.0 3.2 0.00 0.00 0.00 48 1017.2
20260505164904 22 267 1.6 4.8 0.00 0.00 0.00 46 1017.2
20260505164404 23 262 0.0 1.6 0.00 0.00 0.00 45 1017.2
20260505163904 23 220 1.6 3.2 0.00 0.00 0.00 46 1017.1
20260505163403 22 125 1.6 3.2 0.00 0.00 0.00 44 1017.2
20260505162903 22 268 1.6 4.8 0.00 0.00 0.00 45 1017.2
20260505161904 22 319 1.6 4.8 0.00 0.00 0.00 43 1017.4
20260505161404 22 263 1.6 3.2 0.00 0.00 0.00 42 1017.3
20260505160903 22 245 1.6 3.2 0.00 0.00 0.00 47 1017.3
20260505160404 22 266 0.0 1.6 0.00 0.00 0.00 44 1017.3
20260505152904 21 280 1.6 1.6 0.00 0.00 0.00 53 1017.4
20260505152404 21 259 0.0 3.2 0.00 0.00 0.00 54 1017.4
20260505151403 20 236 1.6 1.6 0.00 0.00 0.00 56 1017.5
20260505150903 20 257 0.0 3.2 0.00 0.00 0.00 56 1017.6
20260505140404 16 319 0.0 3.2 0.00 0.00 0.00 62 1017.5
20260505124904 13 122 0.0 1.6 0.00 0.00 0.00 66 1016.9
20260505124403 13 122 0.0 3.2 0.00 0.00 0.00 66 1016.8
20260505123904 13 122 0.0 3.2 0.00 0.00 0.00 65 1016.7
20260505123403 13 122 0.0 3.2 0.00 0.00 0.00 65 1016.8
20260505122903 13 122 0.0 3.2 0.00 0.00 0.00 66 1016.8
20260505122404 13 122 0.0 3.2 0.00 0.00 0.00 65 1016.8
20260505121903 13 122 0.0 3.2 0.00 0.00 0.00 64 1016.8
20260505121403 13 122 1.6 3.2 0.00 0.00 0.00 66 1016.8
20260505120403 13 122 0.0 0.0 0.00 0.00 0.00 66 1016.8
20260505115904 13 122 0.0 0.0 0.00 0.00 0.00 64 1016.8
20260505115404 13 122 0.0 3.2 0.00 0.00 0.00 67 1016.7
20260505114903 13 123 0.0 3.2 0.00 0.00 0.00 68 1016.7
20260505113903 13 124 0.0 0.0 0.00 0.00 0.00 65 1016.4
20260505113404 13 124 0.0 0.0 0.00 0.00 0.00 64 1016.3
20260505112904 13 124 0.0 0.0 0.00 0.00 0.00 63 1016.1
20260505112404 13 124 0.0 0.0 0.00 0.00 0.00 62 1016.1
20260505111904 13 124 0.0 0.0 0.00 0.00 0.00 62 1016.0
20260505111404 13 124 0.0 3.2 0.00 0.00 0.00 62 1016.0
20260505110904 13 124 0.0 1.6 0.00 0.00 0.00 62 1015.9
20260505110403 13 124 0.0 3.2 0.00 0.00 0.00 61 1016.1
20260505101904 13 124 0.0 3.2 0.00 0.00 0.00 60 1015.8
20260505101404 13 124 0.0 3.2 0.00 0.00 0.00 60 1015.8
20260505100904 13 124 0.0 3.2 0.00 0.00 0.00 60 1016.0
20260505100404 13 124 0.0 3.2 0.00 0.00 0.00 60 1016.1
20260505095903 13 124 0.0 3.2 0.00 0.00 0.00 61 1016.2
20260505095404 13 124 0.0 3.2 0.00 0.00 0.00 61 1016.2
20260505094903 13 124 0.0 3.2 0.00 0.00 0.00 61 1016.0
20260505094404 13 124 0.0 0.0 0.00 0.00 0.00 60 1016.2
20260505093904 13 124 0.0 3.2 0.00 0.00 0.00 60 1016.2
20260505093403 13 124 0.0 3.2 0.00 0.00 0.00 60 1016.1
20260505092904 13 124 0.0 3.2 0.00 0.00 0.00 59 1016.1
20260505092404 13 124 1.6 3.2 0.00 0.00 0.00 59 1016.2
20260505091903 13 109 0.0 3.2 0.00 0.00 0.00 58 1016.2
20260505091404 13 109 0.0 3.2 0.00 0.00 0.00 58 1016.1
20260505090904 13 109 0.0 3.2 0.00 0.00 0.00 58 1016.1
20260505090404 13 91 0.0 3.2 0.00 0.00 0.00 57 1016.3
20260505085904 13 91 0.0 3.2 0.00 0.00 0.00 58 1016.3
20260505084904 13 86 0.0 3.2 0.00 0.00 0.00 59 1016.3
20260505084403 13 86 0.0 3.2 0.00 0.00 0.00 59 1016.4
20260505083403 13 86 0.0 3.2 0.00 0.00 0.00 60 1016.4
20260505082904 13 86 0.0 3.2 0.00 0.00 0.00 60 1016.4
20260505081904 13 86 0.0 1.6 0.00 0.00 0.00 60 1016.3
20260505080404 13 86 0.0 3.2 0.00 0.00 0.00 61 1016.3
20260505074904 13 86 0.0 3.2 0.00 0.00 0.00 61 1016.4
20260505073904 13 86 0.0 3.2 0.00 0.00 0.00 59 1016.4
20260505073404 14 86 0.0 3.2 0.00 0.00 0.00 58 1016.4
20260505072904 14 86 0.0 1.6 0.00 0.00 0.00 58 1016.4
20260505072404 14 86 0.0 1.6 0.00 0.00 0.00 58 1016.4
20260505071904 15 86 0.0 3.2 0.00 0.00 0.00 56 1016.4
20260505071404 14 86 0.0 3.2 0.00 0.00 0.00 57 1016.4
20260505070904 15 86 0.0 3.2 0.00 0.00 0.00 57 1016.4
20260505065904 14 86 0.0 3.2 0.00 0.00 0.00 57 1016.3
20260505065404 15 86 0.0 1.6 0.00 0.00 0.00 57 1016.3
20260505064905 15 86 0.0 3.2 0.00 0.00 0.00 57 1016.4
20260505064403 15 86 0.0 3.2 0.00 0.00 0.00 56 1016.4
20260505063404 15 86 0.0 3.2 0.00 0.00 0.00 56 1016.4
20260505062904 15 86 0.0 3.2 0.00 0.00 0.00 56 1016.4
20260505062404 15 86 0.0 3.2 0.00 0.00 0.00 56 1016.5
20260505061904 15 86 0.0 3.2 0.00 0.00 0.00 55 1016.6
20260505061404 15 86 0.0 3.2 0.00 0.00 0.00 55 1016.6
20260505060903 15 85 0.0 3.2 0.00 0.00 0.00 56 1016.6
20260505060404 15 85 0.0 3.2 0.00 0.00 0.00 56 1016.6
20260505055903 15 85 0.0 3.2 0.00 0.00 0.00 56 1016.7
20260505054404 15 68 0.0 1.6 0.00 0.00 0.00 58 1016.8
20260505053904 15 168 0.0 3.2 0.00 0.00 0.00 58 1016.8
20260505053403 15 168 0.0 1.6 0.00 0.00 0.00 57 1016.8
20260505052904 15 168 0.0 3.2 0.00 0.00 0.00 57 1016.7
20260505051904 15 169 0.0 3.2 0.00 0.00 0.00 57 1016.8
20260505051404 15 168 0.0 3.2 0.00 0.00 0.00 58 1016.9
20260505050904 15 168 0.0 3.2 0.00 0.00 0.00 57 1016.9
20260505050404 15 169 0.0 3.2 0.00 0.00 0.00 57 1016.8
20260505040904 15 168 0.0 3.2 0.00 0.00 0.00 55 1016.6
20260505040403 15 168 0.0 3.2 0.00 0.00 0.00 55 1016.7
20260505035903 15 168 0.0 3.2 0.00 0.00 0.00 54 1016.7
20260505035404 15 168 0.0 3.2 0.00 0.00 0.00 53 1016.8
20260505034903 16 168 0.0 3.2 0.00 0.00 0.00 53 1016.8
20260505034403 16 168 0.0 1.6 0.00 0.00 0.00 53 1016.8
20260505033903 16 168 0.0 3.2 0.00 0.00 0.00 53 1016.8
20260505033404 16 168 0.0 3.2 0.00 0.00 0.00 53 1016.8
20260505032903 16 168 0.0 3.2 0.00 0.00 0.00 53 1016.8
20260505032404 16 168 0.0 3.2 0.00 0.00 0.00 52 1016.9
20260505031904 16 168 0.0 3.2 0.00 0.00 0.00 52 1016.9
20260505031403 16 168 0.0 1.6 0.00 0.00 0.00 51 1016.9
20260505030904 16 180 0.0 1.6 0.00 0.00 0.00 51 1016.8
20260505030404 16 180 0.0 3.2 0.00 0.00 0.00 52 1016.8
20260505025904 16 180 0.0 1.6 0.00 0.00 0.00 52 1016.8
20260505025403 16 180 0.0 3.2 0.00 0.00 0.00 52 1017.0
20260505024904 16 180 0.0 1.6 0.00 0.00 0.00 53 1016.9
20260505024404 17 180 0.0 1.6 0.00 0.00 0.00 52 1016.8
20260505023904 16 180 0.0 3.2 0.00 0.00 0.00 52 1016.8
20260505022904 16 180 0.0 3.2 0.00 0.00 0.00 53 1016.8
20260505022404 16 180 0.0 3.2 0.00 0.00 0.00 53 1016.8
20260505021904 16 180 0.0 1.6 0.00 0.00 0.00 53 1016.7
20260505020903 17 180 0.0 3.2 0.00 0.00 0.00 54 1016.6
20260505015404 17 180 0.0 0.0 0.00 0.00 0.00 53 1016.5
20260505014904 17 180 0.0 3.2 0.00 0.00 0.00 55 1016.5
20260505014404 17 180 0.0 0.0 0.00 0.00 0.00 54 1016.5
20260505013903 17 180 0.0 1.6 0.00 0.00 0.00 53 1016.3
20260505013403 17 180 0.0 3.2 0.00 0.00 0.00 52 1016.3
20260505012904 17 180 0.0 3.2 0.00 0.00 0.00 53 1016.2
20260505011904 17 180 0.0 3.2 0.00 0.00 0.00 53 1016.2
20260505011404 17 180 0.0 3.2 0.00 0.00 0.00 54 1016.2
20260505005903 17 180 0.0 0.0 0.00 0.00 0.00 57 1016.2
20260505005404 17 180 0.0 3.2 0.00 0.00 0.00 56 1016.2
20260505004903 17 180 0.0 3.2 0.00 0.00 0.00 55 1016.2
20260505004404 17 180 0.0 1.6 0.00 0.00 0.00 56 1016.1
20260505003903 18 180 0.0 3.2 0.00 0.00 0.00 55 1016.1
20260505003404 18 180 0.0 1.6 0.00 0.00 0.00 54 1016.0
20260505002904 18 180 0.0 1.6 0.00 0.00 0.00 53 1016.0
20260505002404 18 180 0.0 3.2 0.00 0.00 0.00 54 1015.9
20260505001904 18 181 0.0 1.6 0.00 0.00 0.00 54 1015.9
20260505000904 18 181 0.0 3.2 0.00 0.00 0.00 57 1015.8
20260505000405 18 181 0.0 3.2 0.00 0.00 0.00 56 1015.9
20260504235904 19 181 0.0 3.2 0.00 0.00 0.00 55 1015.9
20260504235404 19 181 0.0 0.0 0.00 0.00 0.00 54 1015.9
20260504234904 19 181 0.0 0.0 0.00 0.00 0.00 53 1016.0
20260504234403 19 181 0.0 3.2 0.00 0.00 0.00 53 1016.0
20260504233904 18 181 0.0 0.0 0.00 0.00 0.00 54 1016.0
20260504233403 18 181 0.0 0.0 0.00 0.00 0.00 54 1016.0
20260504232904 18 181 0.0 0.0 0.00 0.00 0.00 53 1016.0
20260504232404 19 181 0.0 0.0 0.00 0.00 0.00 53 1016.0
20260504231904 19 181 0.0 0.0 0.00 0.00 0.00 52 1016.0
20260504231404 19 181 0.0 0.0 0.00 0.00 0.00 51 1015.9
20260504230404 19 181 0.0 0.0 0.00 0.00 0.00 51 1015.9
20260504225904 19 181 0.0 0.0 0.00 0.00 0.00 51 1015.8
20260504225404 20 181 0.0 1.6 0.00 0.00 0.00 50 1015.8
20260504224404 20 180 0.0 0.0 0.00 0.00 0.00 49 1016.1
20260504223904 20 180 0.0 0.0 0.00 0.00 0.00 49 1016.0
20260504223403 20 180 0.0 0.0 0.00 0.00 0.00 48 1016.0
20260504222903 20 180 0.0 3.2 0.00 0.00 0.00 49 1016.0
20260504222404 20 180 0.0 1.6 0.00 0.00 0.00 48 1016.2
20260504221904 20 208 0.0 3.2 0.00 0.00 0.00 49 1016.2
20260504221404 20 208 0.0 3.2 0.00 0.00 0.00 49 1016.2
20260504220904 20 208 0.0 3.2 0.00 0.00 0.00 47 1016.3
20260504215404 20 208 0.0 3.2 0.00 0.00 0.00 50 1016.1
20260504214903 20 208 0.0 1.6 0.00 0.00 0.00 54 1016.2
20260504213903 20 208 0.0 1.6 0.00 0.00 0.00 52 1016.1
20260504213404 20 208 0.0 3.2 0.00 0.00 0.00 53 1016.0
20260504212404 21 208 0.0 1.6 0.00 0.00 0.00 52 1015.9
20260504211903 21 208 0.0 3.2 0.00 0.00 0.00 52 1015.9
20260504211404 21 221 0.0 3.2 0.00 0.00 0.00 51 1016.0
20260504210404 20 231 0.0 3.2 0.00 0.00 0.00 52 1016.0
20260504205904 21 235 0.0 3.2 0.00 0.00 0.00 49 1016.1
20260504205403 21 236 0.0 3.2 0.00 0.00 0.00 51 1016.0
20260504204904 21 239 0.0 3.2 0.00 0.00 0.00 51 1016.0
20260504204404 21 239 0.0 3.2 0.00 0.00 0.00 50 1016.1
20260504203404 21 266 0.0 3.2 0.00 0.00 0.00 52 1016.2
20260504202904 21 266 0.0 3.2 0.00 0.00 0.00 52 1016.3
20260504202404 21 266 0.0 3.2 0.00 0.00 0.00 49 1016.3
20260504201904 21 269 0.0 3.2 0.00 0.00 0.00 47 1016.4
20260504201404 21 269 0.0 3.2 0.00 0.00 0.00 49 1016.5